This demonstration page uses our WeatherBlox Daily Observations layout. Learn more.

39.92423, -83.80882

Hourly Observations for September 8, 2019

Temp ( °F °C ) Dew Point ( °F °C ) Humidity (%) Winds ( mph kmh ) Pressure ( in mb ) Visibility ( mi km ) Precip ( " mm )
12:56 am 00:56 Clear 55 12.8 55 12.8 100 100 Calm 30.03 1017 10 16.09344 0 0
1:56 am 01:56 Clear 55 12.8 55 12.8 100 100 Calm 30.03 1017 10 16.09344 0 0
2:56 am 02:56 Clear 53 11.7 53 11.7 100 100 Calm 30.03 1017 9 14.484096 0 0
3:56 am 03:56 Clear 54 12.2 54 12.2 100 100 Calm 30.03 1017 10 16.09344 0 0
4:56 am 04:56 Clear 53 11.7 53 11.7 100 100 NNW 5 7 30.03 1017 10 16.09344 0 0
5:56 am 05:56 Clear 54 12.2 54 12.2 100 100 Calm 30.06 1018 10 16.09344 0 0
6:56 am 06:56 Mostly Clear 56 13.3 56 13.3 100 100 Calm 30.06 1018 10 16.09344 0 0
7:56 am 07:56 Mostly Cloudy 58 14.4 58 14.4 100 100 Calm 30.09 1019 10 16.09344 0 0
8:56 am 08:56 Cloudy 61 16.1 60 15.6 97 97 Calm 30.09 1019 10 16.09344 0 0
9:56 am 09:56 Cloudy 65 18.3 60 15.6 84 84 WSW 5 7 30.12 1020 10 16.09344 0 0
10:56 am 10:56 Sunny 71 21.7 60 15.6 68 68 WNW 3 6 30.09 1019 10 16.09344 0 0
11:56 am 11:56 Sunny 71 21.7 59 15 66 66 Calm 30.09 1019 10 16.09344 0 0
12:56 pm 12:56 Sunny 74 23.3 59 15 60 60 VRB 3 6 30.09 1019 10 16.09344 0 0
1:56 pm 13:56 Mostly Cloudy 73 22.8 59 15 62 62 Calm 30.09 1019 10 16.09344 0 0
2:56 pm 14:56 Cloudy 74 23.3 60 15.6 62 62 W 7 11 30.12 1020 10 16.09344 0 0
3:56 pm 15:56 Cloudy 73 22.8 61 16.1 66 66 NNW 7 11 30.12 1020 10 16.09344 0 0
4:56 pm 16:56 Mostly Cloudy 72 22.2 61 16.1 68 68 NNE 7 11 30.09 1019 10 16.09344 0 0
5:56 pm 17:56 Cloudy 72 22.2 60 15.6 66 66 ENE 5 7 30.09 1019 10 16.09344 0 0
6:56 pm 18:56 Cloudy 71 21.7 63 17.2 76 76 NE 8 13 30.09 1019 10 16.09344 0 0
7:56 pm 19:56 Cloudy 67 19.4 62 16.7 84 84 NE 9 15 30.09 1019 10 16.09344 0 0
8:56 pm 20:56 Cloudy 64 17.8 62 16.7 93 93 NE 7 11 30.12 1020 10 16.09344 0 0
9:56 pm 21:56 Cloudy 65 18.3 59 15 81 81 NE 7 11 30.12 1020 10 16.09344 0 0
10:56 pm 22:56 Cloudy 63 17.2 61 16.1 93 93 NE 6 9 30.15 1021 10 16.09344 0 0
11:56 pm 23:56 Cloudy 63 17.2 61 16.1 93 93 ENE 6 9 30.15 1021 10 16.09344 0 0

Powered by AerisWeather